Location: York
(31.8935°S, 116.7682°E)
Time: 11:24:22
(UTC+08:00)

A-11 Canister half - Visible Passes

Search period start: 06 October 2022 00:00
Search period end: 16 October 2022 00:00
Orbit: 1516 x 1684 km, 47.2° (Epoch: 05 October)

Date Brightness Start Highest point End Pass type
(mag) Time Alt. Az. Time Alt. Az. Time Alt. Az.
06 Oct 10.9 05:18:53 10° N 05:26:21 27° NE 05:33:59 10° ESE visible
07 Oct 10.9 04:56:22 10° N 05:03:29 25° NE 05:10:48 10° ESE visible
08 Oct 10.9 04:33:54 10° N 04:40:39 23° NE 04:47:32 10° ESE visible
09 Oct 10.9 04:11:29 10° NNE 04:17:49 20° NE 04:24:16 10° E visible
10 Oct 10.9 03:49:07 10° NNE 03:54:59 18° ENE 04:00:56 10° E visible
11 Oct 10.9 03:26:51 10° NNE 03:32:08 17° ENE 03:37:31 10° E visible
12 Oct 10.9 03:04:41 10° NNE 03:09:19 15° ENE 03:13:59 10° E visible
12 Oct 9.4 05:03:41 10° NW 05:12:55 68° NE 05:22:31 10° SE visible
13 Oct 10.9 02:42:42 10° NNE 02:46:29 13° ENE 02:50:18 10° E visible
13 Oct 9.4 04:40:51 10° NW 04:50:01 64° NE 04:59:31 10° ESE visible
14 Oct 10.9 02:21:03 10° NE 02:23:39 11° ENE 02:26:17 10° ENE visible
14 Oct 9.4 04:18:19 11° NNW 04:27:08 60° NE 04:36:31 10° ESE visible
15 Oct 9.4 03:57:05 17° NNW 04:04:14 56° NE 04:13:30 10° ESE visible
